| time (UTC) | temp F | wind direction | speed MPH | gust MPH | rain 1hr in | rain 24hr in | rain mn in | humidity % | barometer mb |
| 20260507051019 | 54 | 0.0 | 0.0 | 0.00 | 0.00 | 0.00 | 81 | 1022.0 | |
| 20260507050020 | 54 | 0.0 | 3.0 | 0.00 | 0.00 | 0.00 | 81 | 1021.9 | |
| 20260507045020 | 54 | 0.0 | 0.0 | 0.00 | 0.00 | 0.00 | 81 | 1022.0 | |
| 20260507044020 | 54 | 0.0 | 6.0 | 0.00 | 0.00 | 0.00 | 81 | 1022.0 | |
| 20260507043039 | 54 | 0.0 | 0.0 | 0.00 | 0.00 | 0.00 | 81 | 1022.0 | |
| 20260507042020 | 54 | 0.0 | 3.0 | 0.00 | 0.00 | 0.00 | 80 | 1021.9 | |
| 20260507041019 | 54 | 0.0 | 4.0 | 0.00 | 0.00 | 0.00 | 80 | 1021.9 | |
| 20260507040019 | 54 | 0.0 | 2.0 | 0.00 | 0.00 | 0.00 | 80 | 1021.9 | |
| 20260507035018 | 54 | 0.0 | 3.0 | 0.00 | 0.00 | 0.00 | 80 | 1021.7 | |
| 20260507034020 | 55 | 0.0 | 4.0 | 0.00 | 0.00 | 0.00 | 81 | 1021.7 | |
| 20260507033019 | 55 | 293 | 1.0 | 5.0 | 0.00 | 0.00 | 0.00 | 80 | 1021.6 |
| 20260507032019 | 55 | 0.0 | 4.0 | 0.00 | 0.00 | 0.00 | 80 | 1021.5 | |
| 20260507031019 | 55 | 270 | 1.0 | 6.0 | 0.00 | 0.00 | 0.00 | 80 | 1021.4 |
| 20260507030021 | 55 | 293 | 1.0 | 7.0 | 0.00 | 0.00 | 0.00 | 80 | 1021.3 |
| 20260507025019 | 55 | 293 | 1.0 | 8.0 | 0.00 | 0.00 | 0.00 | 80 | 1021.1 |
| 20260507024020 | 55 | 0.0 | 5.0 | 0.00 | 0.00 | 0.00 | 79 | 1021.0 | |
| 20260507023019 | 56 | 0.0 | 7.0 | 0.00 | 0.00 | 0.00 | 78 | 1020.9 | |
| 20260507022021 | 56 | 315 | 1.0 | 7.0 | 0.00 | 0.00 | 0.00 | 78 | 1021.0 |
| 20260507021038 | 56 | 315 | 2.0 | 9.0 | 0.00 | 0.00 | 0.00 | 77 | 1021.0 |
| 20260507020018 | 57 | 293 | 2.0 | 13.0 | 0.00 | 0.00 | 0.00 | 76 | 1021.1 |
| 20260507015019 | 57 | 270 | 2.0 | 9.0 | 0.00 | 0.00 | 0.00 | 76 | 1021.0 |
| 20260507014019 | 57 | 293 | 1.0 | 7.0 | 0.00 | 0.00 | 0.00 | 76 | 1020.9 |
| 20260507013018 | 58 | 293 | 1.0 | 7.0 | 0.00 | 0.00 | 0.00 | 75 | 1021.0 |
| 20260507012019 | 58 | 315 | 1.0 | 9.0 | 0.00 | 0.00 | 0.00 | 75 | 1020.9 |
| 20260507011039 | 59 | 315 | 1.0 | 8.0 | 0.00 | 0.00 | 0.00 | 75 | 1021.0 |
| 20260507010038 | 58 | 315 | 2.0 | 7.0 | 0.00 | 0.00 | 0.00 | 75 | 1021.0 |
| 20260507005018 | 59 | 293 | 2.0 | 8.0 | 0.00 | 0.00 | 0.00 | 73 | 1021.0 |
| 20260507004020 | 59 | 293 | 1.0 | 8.0 | 0.00 | 0.00 | 0.00 | 74 | 1021.0 |
| 20260507003018 | 59 | 293 | 1.0 | 6.0 | 0.00 | 0.00 | 0.00 | 74 | 1021.1 |
| 20260507002020 | 60 | 293 | 3.0 | 11.0 | 0.00 | 0.00 | 0.00 | 73 | 1021.1 |
| 20260507001020 | 60 | 293 | 2.0 | 8.0 | 0.00 | 0.00 | 0.00 | 73 | 1021.1 |
| 20260507000018 | 60 | 315 | 2.0 | 9.0 | 0.00 | 0.00 | 0.00 | 72 | 1021.1 |
| 20260506235019 | 61 | 315 | 1.0 | 7.0 | 0.00 | 0.00 | 0.00 | 71 | 1021.1 |
| 20260506234019 | 62 | 293 | 2.0 | 9.0 | 0.00 | 0.00 | 0.00 | 70 | 1021.0 |
| 20260506233018 | 62 | 293 | 2.0 | 6.0 | 0.00 | 0.00 | 0.00 | 70 | 1021.0 |
| 20260506232019 | 62 | 315 | 3.0 | 9.0 | 0.00 | 0.00 | 0.00 | 70 | 1020.9 |
| 20260506231018 | 63 | 293 | 2.0 | 7.0 | 0.00 | 0.00 | 0.00 | 69 | 1021.0 |
| 20260506230018 | 63 | 270 | 2.0 | 12.0 | 0.00 | 0.00 | 0.00 | 69 | 1021.0 |
| 20260506225018 | 62 | 293 | 2.0 | 8.0 | 0.00 | 0.00 | 0.00 | 70 | 1021.0 |
| 20260506224020 | 61 | 293 | 2.0 | 10.0 | 0.00 | 0.00 | 0.00 | 72 | 1021.1 |
| 20260506223020 | 61 | 248 | 1.0 | 5.0 | 0.00 | 0.00 | 0.00 | 72 | 1021.1 |
| 20260506222019 | 61 | 293 | 1.0 | 6.0 | 0.00 | 0.00 | 0.00 | 71 | 1021.2 |
| 20260506221020 | 61 | 293 | 1.0 | 5.0 | 0.00 | 0.00 | 0.00 | 71 | 1021.3 |
| 20260506220021 | 61 | 225 | 2.0 | 8.0 | 0.00 | 0.00 | 0.00 | 71 | 1021.4 |
| 20260506215020 | 61 | 248 | 2.0 | 7.0 | 0.00 | 0.00 | 0.00 | 71 | 1021.4 |
| 20260506214020 | 61 | 248 | 2.0 | 17.0 | 0.00 | 0.00 | 0.00 | 70 | 1021.4 |
| 20260506213019 | 61 | 248 | 2.0 | 10.0 | 0.00 | 0.00 | 0.00 | 71 | 1021.3 |
| 20260506212019 | 61 | 270 | 3.0 | 12.0 | 0.00 | 0.00 | 0.00 | 70 | 1021.4 |
| 20260506211040 | 62 | 270 | 4.0 | 15.0 | 0.00 | 0.00 | 0.00 | 71 | 1021.3 |
| 20260506210019 | 61 | 315 | 3.0 | 14.0 | 0.00 | 0.00 | 0.00 | 72 | 1021.2 |
| 20260506205019 | 60 | 225 | 4.0 | 12.0 | 0.00 | 0.00 | 0.00 | 74 | 1021.2 |
| 20260506204020 | 60 | 315 | 5.0 | 19.0 | 0.00 | 0.00 | 0.00 | 75 | 1021.3 |
| 20260506203019 | 60 | 270 | 3.0 | 14.0 | 0.00 | 0.00 | 0.00 | 78 | 1021.1 |
| 20260506202019 | 59 | 293 | 4.0 | 13.0 | 0.00 | 0.00 | 0.00 | 78 | 1021.0 |
| 20260506201020 | 60 | 270 | 4.0 | 13.0 | 0.00 | 0.00 | 0.00 | 78 | 1021.0 |
| 20260506200019 | 59 | 225 | 5.0 | 20.0 | 0.00 | 0.00 | 0.00 | 79 | 1020.9 |
| 20260506195021 | 59 | 225 | 4.0 | 13.0 | 0.00 | 0.00 | 0.00 | 80 | 1020.9 |
| 20260506194022 | 58 | 225 | 4.0 | 14.0 | 0.00 | 0.00 | 0.00 | 81 | 1020.8 |
| 20260506193040 | 58 | 270 | 3.0 | 14.0 | 0.00 | 0.00 | 0.00 | 82 | 1021.0 |
| 20260506192020 | 57 | 293 | 3.0 | 10.0 | 0.00 | 0.00 | 0.00 | 83 | 1021.0 |
| 20260506191019 | 57 | 315 | 3.0 | 12.0 | 0.00 | 0.00 | 0.00 | 83 | 1021.0 |
| 20260506190039 | 57 | 293 | 2.0 | 8.0 | 0.00 | 0.00 | 0.00 | 83 | 1021.0 |
| 20260506185039 | 58 | 315 | 3.0 | 12.0 | 0.00 | 0.00 | 0.00 | 82 | 1020.9 |
| 20260506184020 | 58 | 0 | 1.0 | 5.0 | 0.00 | 0.00 | 0.00 | 83 | 1020.7 |
| 20260506183019 | 57 | 315 | 2.0 | 5.0 | 0.00 | 0.00 | 0.00 | 84 | 1020.6 |
| 20260506182039 | 57 | 0 | 1.0 | 5.0 | 0.00 | 0.00 | 0.00 | 85 | 1020.8 |
| 20260506181019 | 56 | 338 | 1.0 | 7.0 | 0.00 | 0.00 | 0.00 | 86 | 1020.9 |
| 20260506180020 | 55 | 315 | 1.0 | 6.0 | 0.00 | 0.00 | 0.00 | 86 | 1020.6 |
| 20260506175039 | 55 | 315 | 1.0 | 6.0 | 0.00 | 0.00 | 0.00 | 87 | 1020.7 |
| 20260506174039 | 54 | 315 | 1.0 | 4.0 | 0.00 | 0.00 | 0.00 | 87 | 1020.9 |
| 20260506173019 | 54 | 293 | 1.0 | 6.0 | 0.00 | 0.00 | 0.00 | 87 | 1020.8 |
| 20260506172020 | 54 | 315 | 2.0 | 8.0 | 0.00 | 0.00 | 0.00 | 87 | 1020.9 |
| 20260506171019 | 54 | 293 | 1.0 | 5.0 | 0.00 | 0.00 | 0.00 | 87 | 1020.8 |
| 20260506170039 | 54 | 315 | 2.0 | 6.0 | 0.00 | 0.00 | 0.00 | 87 | 1020.7 |
| 20260506165018 | 54 | 0 | 1.0 | 6.0 | 0.00 | 0.00 | 0.00 | 87 | 1020.6 |
| 20260506164039 | 54 | 315 | 1.0 | 6.0 | 0.00 | 0.00 | 0.00 | 87 | 1020.6 |
| 20260506163019 | 54 | 315 | 1.0 | 6.0 | 0.00 | 0.00 | 0.00 | 87 | 1020.5 |
| 20260506162018 | 54 | 315 | 1.0 | 4.0 | 0.00 | 0.00 | 0.00 | 87 | 1020.5 |
| 20260506161020 | 54 | 248 | 1.0 | 6.0 | 0.00 | 0.00 | 0.00 | 87 | 1020.6 |
| 20260506160019 | 54 | 315 | 1.0 | 7.0 | 0.00 | 0.00 | 0.00 | 87 | 1020.6 |
| 20260506155139 | 54 | 315 | 1.0 | 6.0 | 0.00 | 0.00 | 0.00 | 87 | 1020.5 |
| 20260506154019 | 54 | 270 | 1.0 | 5.0 | 0.00 | 0.00 | 0.00 | 87 | 1020.4 |
| 20260506153037 | 54 | 0.0 | 3.0 | 0.00 | 0.00 | 0.00 | 87 | 1020.6 | |
| 20260506152018 | 53 | 0.0 | 5.0 | 0.00 | 0.00 | 0.00 | 87 | 1020.5 | |
| 20260506151019 | 53 | 293 | 1.0 | 4.0 | 0.00 | 0.00 | 0.00 | 88 | 1020.5 |
| 20260506150018 | 53 | 293 | 1.0 | 7.0 | 0.00 | 0.00 | 0.00 | 88 | 1020.4 |
| 20260506145018 | 53 | 315 | 1.0 | 4.0 | 0.00 | 0.00 | 0.00 | 88 | 1020.2 |
| 20260506144019 | 53 | 0.0 | 3.0 | 0.00 | 0.00 | 0.00 | 88 | 1019.9 | |
| 20260506143018 | 53 | 0.0 | 1.0 | 0.00 | 0.00 | 0.00 | 89 | 1020.3 | |
| 20260506142019 | 53 | 0.0 | 0.0 | 0.00 | 0.00 | 0.00 | 89 | 1020.3 | |
| 20260506141018 | 53 | 0.0 | 4.0 | 0.00 | 0.00 | 0.00 | 89 | 1020.4 | |
| 20260506140018 | 52 | 0.0 | 2.0 | 0.00 | 0.00 | 0.00 | 89 | 1020.4 | |
| 20260506135020 | 53 | 0.0 | 4.0 | 0.00 | 0.00 | 0.00 | 89 | 1020.5 | |
| 20260506134041 | 53 | 248 | 1.0 | 5.0 | 0.00 | 0.00 | 0.00 | 89 | 1020.3 |
| 20260506133040 | 53 | 0.0 | 3.0 | 0.00 | 0.00 | 0.00 | 89 | 1020.3 | |
| 20260506132020 | 53 | 0.0 | 0.0 | 0.00 | 0.00 | 0.00 | 89 | 1020.1 | |
| 20260506131020 | 52 | 0.0 | 0.0 | 0.00 | 0.00 | 0.00 | 89 | 1020.0 | |
| 20260506130040 | 52 | 0.0 | 0.0 | 0.00 | 0.00 | 0.00 | 90 | 1020.1 | |
| 20260506125019 | 52 | 0.0 | 0.0 | 0.00 | 0.00 | 0.00 | 89 | 1019.9 | |
| 20260506124021 | 52 | 0.0 | 0.0 | 0.00 | 0.00 | 0.00 | 89 | 1019.8 | |
| 20260506123040 | 52 | 0.0 | 0.0 | 0.00 | 0.00 | 0.00 | 89 | 1019.8 | |
| 20260506122019 | 52 | 0.0 | 0.0 | 0.00 | 0.00 | 0.00 | 89 | 1019.6 | |
| 20260506121020 | 52 | 0.0 | 0.0 | 0.00 | 0.00 | 0.00 | 89 | 1019.5 | |
| 20260506120019 | 52 | 0.0 | 0.0 | 0.00 | 0.00 | 0.00 | 89 | 1019.5 | |
| 20260506115019 | 53 | 0.0 | 0.0 | 0.00 | 0.00 | 0.00 | 89 | 1019.5 | |
| 20260506114020 | 53 | 0.0 | 0.0 | 0.00 | 0.00 | 0.00 | 89 | 1019.5 | |
| 20260506113019 | 53 | 0.0 | 0.0 | 0.00 | 0.00 | 0.00 | 88 | 1019.4 | |
| 20260506112020 | 53 | 0.0 | 4.0 | 0.00 | 0.00 | 0.00 | 88 | 1019.4 | |
| 20260506111019 | 53 | 0.0 | 4.0 | 0.00 | 0.00 | 0.00 | 88 | 1019.4 | |
| 20260506110021 | 53 | 293 | 1.0 | 4.0 | 0.00 | 0.00 | 0.00 | 89 | 1019.3 |
| 20260506105020 | 53 | 315 | 1.0 | 4.0 | 0.00 | 0.00 | 0.00 | 89 | 1019.2 |
| 20260506104020 | 53 | 315 | 1.0 | 4.0 | 0.00 | 0.00 | 0.00 | 90 | 1019.1 |
| 20260506103020 | 53 | 0.0 | 0.0 | 0.00 | 0.00 | 0.00 | 90 | 1018.9 | |
| 20260506102019 | 52 | 0.0 | 0.0 | 0.00 | 0.00 | 0.00 | 90 | 1018.8 | |
| 20260506101019 | 52 | 0.0 | 0.0 | 0.00 | 0.00 | 0.00 | 90 | 1018.7 | |
| 20260506100019 | 52 | 0.0 | 0.0 | 0.00 | 0.00 | 0.00 | 90 | 1018.7 | |
| 20260506095018 | 52 | 0.0 | 0.0 | 0.00 | 0.00 | 0.00 | 90 | 1018.6 | |
| 20260506094020 | 52 | 0.0 | 0.0 | 0.00 | 0.00 | 0.00 | 90 | 1018.6 | |
| 20260506093018 | 52 | 0.0 | 0.0 | 0.00 | 0.00 | 0.00 | 90 | 1018.6 | |
| 20260506092019 | 52 | 0.0 | 0.0 | 0.00 | 0.00 | 0.00 | 90 | 1018.6 | |
| 20260506091020 | 52 | 0.0 | 0.0 | 0.00 | 0.00 | 0.00 | 90 | 1018.6 | |
| 20260506090019 | 52 | 0.0 | 0.0 | 0.00 | 0.00 | 0.00 | 91 | 1018.5 | |
| 20260506085018 | 52 | 0.0 | 0.0 | 0.00 | 0.00 | 0.00 | 90 | 1018.4 | |
| 20260506084020 | 52 | 0.0 | 0.0 | 0.00 | 0.00 | 0.00 | 90 | 1018.4 | |
| 20260506083039 | 51 | 0.0 | 0.0 | 0.00 | 0.00 | 0.00 | 90 | 1018.3 | |
| 20260506082039 | 51 | 0.0 | 0.0 | 0.00 | 0.00 | 0.00 | 90 | 1018.2 | |
| 20260506081039 | 51 | 0.0 | 0.0 | 0.00 | 0.00 | 0.00 | 90 | 1018.2 | |
| 20260506073017 | 52 | 0.0 | 0.0 | 0.00 | 0.00 | 0.00 | 89 | 1017.8 | |
| 20260506072020 | 52 | 0.0 | 0.0 | 0.00 | 0.00 | 0.00 | 89 | 1017.6 | |
| 20260506071019 | 52 | 0.0 | 0.0 | 0.00 | 0.00 | 0.00 | 89 | 1017.7 | |
| 20260506062020 | 53 | 0.0 | 0.0 | 0.00 | 0.00 | 0.00 | 89 | 1017.2 | |
| 20260506061019 | 53 | 0.0 | 0.0 | 0.00 | 0.00 | 0.00 | 89 | 1017.2 |